Volta Redonda, Brazil
Current Conditions -  °F | °C
As of 6:00 AM on Sunday 23 Nov 2014 (Local Time) from SBSC Reporting Station
Broken Clouds Broken Clouds  
Wind Chill: 77°   Ceiling: 10000
Heat Index: 79°   Visibility: 4mi
Dew Point: 68°   Wind: 13mph
Humidity: 74%   Direction: 20°NNE
Pressure: 29.8"   Gusts: NA
Location:  22.51°S, 44.12°W
Report Text: SBSC 230800Z 02011KT 6000 SCT016 BKN100 25/20 Q1009
Loading
Personal Weather Stations






























Interactive Weather Map New forecast layout! Learn more

10-Day Weather Forecast

Advertisements
Track Severe Weather on mobile